Regional Weather Roundup
Issued by NWS

Home | Current Version | Previous Version | Text Only | Print | Product List | Glossary Off
Versions: 1 2 3 4 5 6 7 8 9 10 11 12 13 14 15 16 17 18 19 20 21 22 23 24 25 26 27 28 29 30 31 32 33 34 35 36 37 38 39 40 41 42 43 44 45 46 47 48 49 50

000
ASUS43 KLMK 280102
RWRKY
KENTUCKY REGIONAL WEATHER ROUNDUP
NATIONAL WEATHER SERVICE LOUISVILLE KY
900 PM EDT SUN JUL 27 2014

NOTE "FAIR" INDICATES FEW OR NO CLOUDS BELOW 12,000 FEET
WITH NO SIGNIFICANT WEATHER AND/OR OBSTRUCTIONS TO VISIBILITY.

KYZ001>023-026-027-061>063-070>075-280200-
WESTERN AND SOUTH CENTRAL KENTUCKY

CITY           SKY/WX    TMP DP  RH WIND       PRES   REMARKS
PADUCAH        PTCLDY    85  67  54 W5        29.87R
HENDERSON      PTCLDY    81  70  69 W5        29.84R
OWENSBORO      CLEAR     83  67  58 W8        29.83S
HOPKINSVILLE   MOCLDY    87  76  70 W13       29.85R THUNDER HX  98
BOWLING GREEN  CLOUDY    88  73  61 NW10      29.82R HX  95
GLASGOW        MOCLDY    81  73  77 NW6       29.81S
$$

KYZ024-025-028>034-038-045-046-053-280200-
NORTH CENTRAL KENTUCKY

CITY           SKY/WX    TMP DP  RH WIND       PRES   REMARKS
LOUISVILLE/SDF MOCLDY    84  67  56 W14       29.78R
LOUISVILLE/LOU PTCLDY    84  67  56 W16G26    29.79R
FORT KNOX      CLEAR     78  68  71 W5        29.80S
$$

KYZ035>037-039>044-047>052-055>060-089>105-280200-
NORTHEAST KENTUCKY

CITY           SKY/WX    TMP DP  RH WIND       PRES   REMARKS
LEXINGTON      CLEAR     81  71  71 W10       29.79R
COVINGTON      MOCLDY    71  67  87 W8        29.77S
FRANKFORT      CLEAR     80  68  66 W6        29.77S
$$

KYZ054-064>069-076>088-106>120-280200-
SOUTHEAST KENTUCKY

CITY           SKY/WX    TMP DP  RH WIND       PRES   REMARKS
JACKSON        PTCLDY    72  70  93 VRB5      29.80F
LONDON         CLOUDY    75  70  84 S7        29.83F
SOMERSET       NOT AVBL
MIDDLESBORO    TSTM      70  69  97 SW6       29.88F
MONTICELLO     PTCLDY    78  75  90 SW10      29.80F THUNDER
$$




USA.gov is the U.S. government's official web portal to all federal, state and local government web resources and services.